Location: Newark
(34.9756°N, 138.3828°E)
Time: 08:10:41
(UTC+00:00)

N. Korean satellite - Pass Details

Date: 11 December 2019
Orbit: 454 x 507 km, 97.2° (Epoch: 27 January)

Event Time Altitude Azimuth Distance (km) Brightness Sun altitude
Rises 20:20:05 0° 16° (NNE) 2,525 10.2 -16.8°
Reaches altitude 10° 20:22:11 10° 21° (NNE) 1,634 9.3 -16.4°
Maximum altitude 20:25:38 55° 99° (E) 566 7.2 -15.7°
Drops below altitude 10° 20:29:00 10° 179° (S) 1,598 9.4 -15.0°
Sets 20:31:02 0° 183° (S) 2,462 10.3 -14.6°
